{"data":{"norad_id":58981,"intl_designator":"2024-031S","name":"STARLINK-31339","alt_names":[],"object_type":"PAYLOAD","status":"ACTIVE","operator":null,"country":"US","launch_date":"2024-02-15","launch_site_code":"AFWTR","launch_vehicle":null,"mission":null,"orbit_class":"UNKNOWN","rcs_meters":null,"size_class":null,"mass_kg":null,"dimensions":null,"purposes":["comms"],"wikipedia_slug":null,"has_3d_model":false,"image_url":null,"decayed_at":null,"tle_current":{"epoch":"2026-05-24T16:28:12.327456Z","epoch_age_seconds":102444,"freshness":"FRESH","line1":"1 58981U 24031S   26144.68625379  .00000589  00000+0  28571-4 0  9992","line2":"2 58981  53.1633 303.3377 0001405  97.3493 262.7670 15.34391025128155","mean_motion":15.34391025,"eccentricity":0.0001405,"inclination_deg":53.1633,"raan_deg":303.3377,"arg_perigee_deg":97.3493,"mean_anomaly_deg":262.767,"bstar":2.8571e-5,"rev_number":12815,"period_min":93.848307018089,"perigee_km":461.76877412684,"apogee_km":463.69105773022,"semimajor_km":6840.8669159285,"source":"CELESTRAK","updated_at":"2026-05-25T13:38:18.796503Z"}}}